Time,TemperatureF,DewpointF,PressureIn,WindDirection,WindDirectionDegrees,WindSpeedMPH,WindSpeedGustMPH,Humidity,HourlyPrecipIn,Conditions,Clouds,dailyrainin,SolarRadiationWatts/m^2,SoftwareType,DateUTC
2013-02-03 00:01:00,5.0,1.0,-100.00,NE,41,0.0,2.0,83,0.00,,,0.00,0.000000,,2013-02-03 05:01:00,
2013-02-03 00:32:00,5.0,1.0,-100.00,NE,41,0.0,2.0,83,0.00,,,0.00,0.000000,,2013-02-03 05:32:00,
2013-02-03 00:42:00,5.0,1.0,-100.00,NE,41,0.0,2.0,83,0.00,,,0.00,0.000000,,2013-02-03 05:42:00,
2013-02-03 00:52:00,5.0,1.0,-100.00,NE,41,0.0,2.0,83,0.00,,,0.00,0.000000,,2013-02-03 05:52:00,
2013-02-03 01:01:00,3.0,-1.0,-100.00,NE,51,0.0,0.0,81,0.00,,,0.00,0.000000,,2013-02-03 06:01:00,
2013-02-03 01:21:00,3.0,-1.0,-100.00,NE,51,0.0,0.0,81,0.00,,,0.00,0.000000,,2013-02-03 06:21:00,
2013-02-03 01:32:00,3.0,-1.0,-100.00,NE,51,0.0,0.0,81,0.00,,,0.00,0.000000,,2013-02-03 06:32:00,
2013-02-03 01:42:00,3.0,-1.0,-100.00,NE,51,0.0,0.0,81,0.00,,,0.00,0.000000,,2013-02-03 06:42:00,
2013-02-03 01:52:00,3.0,-1.0,-100.00,NE,51,0.0,0.0,81,0.00,,,0.00,0.000000,,2013-02-03 06:52:00,
2013-02-03 02:01:00,1.0,-4.0,-100.00,NNE,14,0.0,2.0,80,0.00,,,0.00,0.000000,,2013-02-03 07:01:00,
2013-02-03 02:32:00,1.0,-4.0,-100.00,NNE,14,0.0,2.0,80,0.00,,,0.00,0.000000,,2013-02-03 07:32:00,
2013-02-03 02:42:00,1.0,-4.0,-100.00,NNE,14,0.0,2.0,80,0.00,,,0.00,0.000000,,2013-02-03 07:42:00,
2013-02-03 02:52:00,1.0,-4.0,-100.00,NNE,14,0.0,2.0,80,0.00,,,0.00,0.000000,,2013-02-03 07:52:00,
2013-02-03 03:01:00,1.0,-3.0,-100.00,NE,44,0.0,2.0,81,0.00,,,0.00,0.000000,,2013-02-03 08:01:00,
2013-02-03 03:32:00,1.0,-3.0,-100.00,NE,44,0.0,2.0,81,0.00,,,0.00,0.000000,,2013-02-03 08:32:00,
2013-02-03 03:42:00,1.0,-3.0,-100.00,NE,44,0.0,2.0,81,0.00,,,0.00,0.000000,,2013-02-03 08:42:00,
2013-02-03 03:52:00,1.0,-3.0,-100.00,NE,44,0.0,2.0,81,0.00,,,0.00,0.000000,,2013-02-03 08:52:00,
2013-02-03 04:01:00,4.0,0.0,-100.00,NE,49,0.0,2.0,83,0.00,,,0.00,0.000000,,2013-02-03 09:01:00,
2013-02-03 04:32:00,4.0,0.0,-100.00,NE,49,0.0,2.0,83,0.00,,,0.00,0.000000,,2013-02-03 09:32:00,
2013-02-03 04:42:00,4.0,0.0,-100.00,NE,49,0.0,2.0,83,0.00,,,0.00,0.000000,,2013-02-03 09:42:00,
2013-02-03 04:52:00,4.0,0.0,-100.00,NE,49,0.0,2.0,83,0.00,,,0.00,0.000000,,2013-02-03 09:52:00,
2013-02-03 05:01:00,6.0,2.0,-100.00,NNE,20,0.0,4.0,82,0.00,,,0.00,0.000000,,2013-02-03 10:01:00,
2013-02-03 05:32:00,6.0,2.0,-100.00,NNE,20,0.0,4.0,82,0.00,,,0.00,0.000000,,2013-02-03 10:32:00,
2013-02-03 05:42:00,6.0,2.0,-100.00,NNE,20,0.0,4.0,82,0.00,,,0.00,0.000000,,2013-02-03 10:42:00,
2013-02-03 05:53:00,6.0,2.0,-100.00,NNE,20,0.0,4.0,82,0.00,,,0.00,0.000000,,2013-02-03 10:53:00,
2013-02-03 06:01:00,7.0,3.0,-100.00,NNE,32,0.0,6.0,82,0.00,,,0.00,0.000000,,2013-02-03 11:01:00,
2013-02-03 06:32:00,7.0,3.0,-100.00,NNE,32,0.0,6.0,82,0.00,,,0.00,0.000000,,2013-02-03 11:32:00,
2013-02-03 06:42:00,7.0,3.0,-100.00,NNE,32,0.0,6.0,82,0.00,,,0.00,0.000000,,2013-02-03 11:42:00,
2013-02-03 06:52:00,7.0,3.0,-100.00,NNE,32,0.0,6.0,82,0.00,,,0.00,0.000000,,2013-02-03 11:52:00,
2013-02-03 07:01:00,7.0,3.0,-100.00,NE,49,0.0,2.0,82,0.00,,,0.00,0.000000,,2013-02-03 12:01:00,
2013-02-03 07:33:00,7.0,3.0,-100.00,NE,49,0.0,2.0,82,0.00,,,0.00,0.000000,,2013-02-03 12:33:00,
2013-02-03 07:42:00,7.0,3.0,-100.00,NE,49,0.0,2.0,82,0.00,,,0.00,0.000000,,2013-02-03 12:42:00,
2013-02-03 07:53:00,7.0,3.0,-100.00,NE,49,0.0,2.0,82,0.00,,,0.00,0.000000,,2013-02-03 12:53:00,
2013-02-03 08:01:00,8.0,4.0,-100.00,NE,37,1.0,5.0,82,0.00,,,0.00,3.000000,,2013-02-03 13:01:00,
2013-02-03 08:32:00,8.0,4.0,-100.00,NE,37,1.0,5.0,82,0.00,,,0.00,3.000000,,2013-02-03 13:32:00,
2013-02-03 08:42:00,8.0,4.0,-100.00,NE,37,1.0,5.0,82,0.00,,,0.00,3.000000,,2013-02-03 13:42:00,
2013-02-03 08:52:00,8.0,4.0,-100.00,NE,37,1.0,5.0,82,0.00,,,0.00,3.000000,,2013-02-03 13:52:00,
2013-02-03 09:01:00,10.0,5.0,-100.00,NNE,29,1.0,6.0,79,0.00,,,0.00,17.000000,,2013-02-03 14:01:00,
2013-02-03 09:32:00,10.0,5.0,-100.00,NNE,29,1.0,6.0,79,0.00,,,0.00,17.000000,,2013-02-03 14:32:00,
2013-02-03 09:43:00,10.0,5.0,-100.00,NNE,29,1.0,6.0,79,0.00,,,0.00,17.000000,,2013-02-03 14:43:00,
2013-02-03 09:52:00,10.0,5.0,-100.00,NNE,29,1.0,6.0,79,0.00,,,0.00,17.000000,,2013-02-03 14:52:00,
2013-02-03 10:01:00,14.0,8.0,-100.00,NNE,33,1.0,4.0,76,0.00,,,0.00,38.000000,,2013-02-03 15:01:00,
2013-02-03 10:33:00,14.0,8.0,-100.00,NNE,33,1.0,4.0,76,0.00,,,0.00,38.000000,,2013-02-03 15:33:00,
2013-02-03 10:42:00,14.0,8.0,-100.00,NNE,33,1.0,4.0,76,0.00,,,0.00,38.000000,,2013-02-03 15:42:00,
2013-02-03 10:52:00,14.0,8.0,-100.00,NNE,33,1.0,4.0,76,0.00,,,0.00,38.000000,,2013-02-03 15:52:00,
2013-02-03 11:01:00,22.0,11.0,-100.00,NE,35,1.0,5.0,62,0.00,,,0.00,103.000000,,2013-02-03 16:01:00,
2013-02-03 11:33:00,22.0,11.0,-100.00,NE,35,1.0,5.0,62,0.00,,,0.00,103.000000,,2013-02-03 16:33:00,
2013-02-03 11:42:00,22.0,11.0,-100.00,NE,35,1.0,5.0,62,0.00,,,0.00,103.000000,,2013-02-03 16:42:00,
2013-02-03 11:52:00,22.0,11.0,-100.00,NE,35,1.0,5.0,62,0.00,,,0.00,103.000000,,2013-02-03 16:52:00,
2013-02-03 12:01:00,25.0,12.0,-100.00,NNE,30,2.0,7.0,56,0.00,,,0.00,157.000000,,2013-02-03 17:01:00,
2013-02-03 12:32:00,25.0,12.0,-100.00,NNE,30,2.0,7.0,56,0.00,,,0.00,157.000000,,2013-02-03 17:32:00,
2013-02-03 12:42:00,25.0,12.0,-100.00,NNE,30,2.0,7.0,56,0.00,,,0.00,157.000000,,2013-02-03 17:42:00,
2013-02-03 12:52:00,25.0,12.0,-100.00,NNE,30,2.0,7.0,56,0.00,,,0.00,157.000000,,2013-02-03 17:52:00,
2013-02-03 13:01:00,26.0,11.0,-100.00,NNE,13,2.0,6.0,53,0.08,,,0.08,258.000000,,2013-02-03 18:01:00,
2013-02-03 13:23:00,26.0,11.0,-100.00,NNE,13,2.0,6.0,53,0.08,,,0.08,258.000000,,2013-02-03 18:23:00,
2013-02-03 13:33:00,26.0,11.0,-100.00,NNE,13,2.0,6.0,53,0.08,,,0.08,258.000000,,2013-02-03 18:33:00,
2013-02-03 13:42:00,26.0,11.0,-100.00,NNE,13,2.0,6.0,53,0.08,,,0.08,258.000000,,2013-02-03 18:42:00,
2013-02-03 13:52:00,26.0,11.0,-100.00,NNE,13,2.0,6.0,53,0.08,,,0.08,258.000000,,2013-02-03 18:52:00,
2013-02-03 14:01:00,24.0,11.0,-100.00,NE,38,2.0,7.0,58,0.01,,,0.09,178.000000,,2013-02-03 19:01:00,
2013-02-03 14:33:00,24.0,11.0,-100.00,NE,38,2.0,7.0,58,0.01,,,0.09,178.000000,,2013-02-03 19:33:00,
2013-02-03 14:42:00,24.0,11.0,-100.00,NE,38,2.0,7.0,58,0.01,,,0.09,178.000000,,2013-02-03 19:42:00,
2013-02-03 14:52:00,24.0,11.0,-100.00,NE,38,2.0,7.0,58,0.01,,,0.09,178.000000,,2013-02-03 19:52:00,
2013-02-03 15:01:00,22.0,10.0,-100.00,NNE,14,2.0,8.0,60,0.00,,,0.09,142.000000,,2013-02-03 20:01:00,
2013-02-03 15:33:00,22.0,10.0,-100.00,NNE,14,2.0,8.0,60,0.00,,,0.09,142.000000,,2013-02-03 20:33:00,
2013-02-03 15:42:00,22.0,10.0,-100.00,NNE,14,2.0,8.0,60,0.00,,,0.09,142.000000,,2013-02-03 20:42:00,
2013-02-03 15:52:00,22.0,10.0,-100.00,NNE,14,2.0,8.0,60,0.00,,,0.09,142.000000,,2013-02-03 20:52:00,
2013-02-03 16:01:00,19.0,9.0,-100.00,North,3,1.0,6.0,65,0.00,,,0.09,59.000000,,2013-02-03 21:01:00,
2013-02-03 16:33:00,19.0,9.0,-100.00,North,3,1.0,6.0,65,0.00,,,0.09,59.000000,,2013-02-03 21:33:00,
2013-02-03 16:42:00,19.0,9.0,-100.00,North,3,1.0,6.0,65,0.00,,,0.09,59.000000,,2013-02-03 21:42:00,
2013-02-03 16:52:00,19.0,9.0,-100.00,North,3,1.0,6.0,65,0.00,,,0.09,59.000000,,2013-02-03 21:52:00,
2013-02-03 17:01:00,15.0,8.0,-100.00,NNE,31,1.0,5.0,73,0.00,,,0.09,20.000000,,2013-02-03 22:01:00,
2013-02-03 17:32:00,15.0,8.0,-100.00,NNE,31,1.0,5.0,73,0.00,,,0.09,20.000000,,2013-02-03 22:32:00,
2013-02-03 17:42:00,15.0,8.0,-100.00,NNE,31,1.0,5.0,73,0.00,,,0.09,20.000000,,2013-02-03 22:42:00,
2013-02-03 17:52:00,15.0,8.0,-100.00,NNE,31,1.0,5.0,73,0.00,,,0.09,20.000000,,2013-02-03 22:52:00,
2013-02-03 18:01:00,13.0,8.0,-100.00,NNE,18,0.0,4.0,79,0.00,,,0.09,1.000000,,2013-02-03 23:01:00,
2013-02-03 18:33:00,13.0,8.0,-100.00,NNE,18,0.0,4.0,79,0.00,,,0.09,1.000000,,2013-02-03 23:33:00,
2013-02-03 18:42:00,13.0,8.0,-100.00,NNE,18,0.0,4.0,79,0.00,,,0.09,1.000000,,2013-02-03 23:42:00,
2013-02-03 18:52:00,13.0,8.0,-100.00,NNE,18,0.0,4.0,79,0.00,,,0.09,1.000000,,2013-02-03 23:52:00,
2013-02-03 19:01:00,13.0,8.0,-100.00,NNE,21,0.0,4.0,80,0.00,,,0.09,0.000000,,2013-02-04 00:01:00,
2013-02-03 19:32:00,13.0,8.0,-100.00,NNE,21,0.0,4.0,80,0.00,,,0.09,0.000000,,2013-02-04 00:32:00,
2013-02-03 19:42:00,13.0,8.0,-100.00,NNE,21,0.0,4.0,80,0.00,,,0.09,0.000000,,2013-02-04 00:42:00,
2013-02-03 19:52:00,13.0,8.0,-100.00,NNE,21,0.0,4.0,80,0.00,,,0.09,0.000000,,2013-02-04 00:52:00,
2013-02-03 20:01:00,12.0,8.0,-100.00,North,6,0.0,4.0,82,0.00,,,0.09,0.000000,,2013-02-04 01:01:00,
2013-02-03 20:22:00,12.0,8.0,-100.00,North,6,0.0,4.0,82,0.00,,,0.09,0.000000,,2013-02-04 01:22:00,
2013-02-03 20:32:00,12.0,8.0,-100.00,North,6,0.0,4.0,82,0.00,,,0.09,0.000000,,2013-02-04 01:32:00,
2013-02-03 20:42:00,12.0,8.0,-100.00,North,6,0.0,4.0,82,0.00,,,0.09,0.000000,,2013-02-04 01:42:00,
2013-02-03 20:52:00,12.0,8.0,-100.00,North,6,0.0,4.0,82,0.00,,,0.09,0.000000,,2013-02-04 01:52:00,
2013-02-03 21:01:00,13.0,8.0,-100.00,North,350,0.0,2.0,81,0.00,,,0.09,0.000000,,2013-02-04 02:01:00,
2013-02-03 21:22:00,13.0,8.0,-100.00,North,350,0.0,2.0,81,0.00,,,0.09,0.000000,,2013-02-04 02:22:00,
2013-02-03 21:32:00,13.0,8.0,-100.00,North,350,0.0,2.0,81,0.00,,,0.09,0.000000,,2013-02-04 02:32:00,
2013-02-03 21:42:00,13.0,8.0,-100.00,North,350,0.0,2.0,81,0.00,,,0.09,0.000000,,2013-02-04 02:42:00,
2013-02-03 21:52:00,13.0,8.0,-100.00,North,350,0.0,2.0,81,0.00,,,0.09,0.000000,,2013-02-04 02:52:00,
2013-02-03 22:01:00,13.0,8.0,-100.00,North,5,0.0,2.0,81,0.00,,,0.09,0.000000,,2013-02-04 03:01:00,
2013-02-03 22:32:00,13.0,8.0,-100.00,North,5,0.0,2.0,81,0.00,,,0.09,0.000000,,2013-02-04 03:32:00,
2013-02-03 22:42:00,13.0,8.0,-100.00,North,5,0.0,2.0,81,0.00,,,0.09,0.000000,,2013-02-04 03:42:00,
2013-02-03 22:52:00,13.0,8.0,-100.00,North,5,0.0,2.0,81,0.00,,,0.09,0.000000,,2013-02-04 03:52:00,
2013-02-03 23:01:00,13.0,9.0,-100.00,NW,312,0.0,1.0,83,0.00,,,0.09,0.000000,,2013-02-04 04:01:00,
2013-02-03 23:32:00,13.0,9.0,-100.00,NW,312,0.0,1.0,83,0.00,,,0.09,0.000000,,2013-02-04 04:32:00,
2013-02-03 23:42:00,13.0,9.0,-100.00,NW,312,0.0,1.0,83,0.00,,,0.09,0.000000,,2013-02-04 04:42:00,
2013-02-03 23:52:00,13.0,9.0,-100.00,NW,312,0.0,1.0,83,0.00,,,0.09,0.000000,,2013-02-04 04:52:00,